Location: Omaha
(41.2590°N, 95.9380°W)
Time: 09:18:32
(UTC-06:00)

N. Korean satellite - Pass Details

Date: 12 October 2017
Orbit: 461 x 513 km, 97.2° (Epoch: 10 December)

Event Time Altitude Azimuth Distance (km) Brightness Sun altitude
Rises 19:12:49 0° 159° (SSE) 2,556 10.1 -5.6°
Reaches altitude 10° 19:14:55 10° 156° (SSE) 1,670 9.1 -6.0°
Maximum altitude 19:18:27 61° 76° (ENE) 554 6.6 -6.7°
Drops below altitude 10° 19:21:57 10° 356° (N) 1,654 9.3 -7.3°
Sets 19:24:01 0° 352° (N) 2,529 10.3 -7.7°
